Weather History for Tulsa, OK

Change the Weather History Date:

Friday, March 1, 2013

  Actual Average Record
Temperature  
Mean Temperature 36 °F 46 °F  
Max Temperature 40 °F 58 °F 93 °F (2006)
Min Temperature 31 °F 36 °F 9 °F (1962)
Degree Days  
Heating Degree Days 29 19  
Month to date heating degree days 29 19  
Since 1 July heating degree days 2701 2930  
Moisture  
Dew Point 24 °F    
Average Humidity 64    
Maximum Humidity 75    
Minimum Humidity 52    
Precipitation  
Precipitation 0.00 in 0.09 in 1.63 in (1973)
Month to date precipitation 0.00 0.09  
Year to date precipitation 4.72 3.60  
Sea Level Pressure  
Sea Level Pressure 30.27 in    
Wind  
Wind Speed 12 mph (NNW)    
Max Wind Speed 18 mph    
Max Gust Speed 23 mph    
Visibility 10 miles    
Events      
T = Trace of Precipitation, MM = Missing Value Source: NWS Daily Summary

Daily Weather History Graph

Daily Weather History Graph

Search for Another Location

Airport:

Trip Planner

Search our weather history database for the weather conditions in past years. The results will help you decide how hot, cold, wet, or windy it might be!

Date:

Astronomy

Mar. 01, 2013 Rise Set
Actual Time 6:53 AM CST 6:18 PM CST
Civil Twilight 6:27 AM CST 6:44 PM CST
Nautical Twilight 5:57 AM CST 7:14 PM CST
Astronomical Twilight 5:28 AM CST 7:44 PM CST
Moon 10:43 PM CST (3/1) 8:49 AM CST (3/1)
Length of Visible Light 12h 16m
Length of Day
11h 25m
Waning Gibbous, 83% of the Moon is Illuminated
Mar 1
Waning Gibbous
Mar 4
Last Quarter
Mar 11
New
Mar 19
First Quarter
Mar 27
Full

Hourly Weather History & Observations

Time (CST) Temp. Windchill Dew Point Humidity Pressure Visibility Wind Dir Wind Speed Gust Speed Precip Events Conditions
12:53 AM 35.1 °F 27.4 °F 26.1 °F 70% 30.24 in 10.0 mi NNW 10.4 mph - N/A   Overcast
1:53 AM 35.1 °F 27.4 °F 26.1 °F 70% 30.23 in 10.0 mi NNW 10.4 mph - N/A   Overcast
2:53 AM 35.1 °F 28.6 °F 26.1 °F 70% 30.22 in 10.0 mi NW 8.1 mph - N/A   Overcast
3:53 AM 35.1 °F 27.9 °F 26.1 °F 70% 30.23 in 10.0 mi NW 9.2 mph - N/A   Overcast
4:53 AM 34.0 °F 27.2 °F 26.1 °F 73% 30.24 in 10.0 mi NNW 8.1 mph - N/A   Overcast
5:53 AM 34.0 °F 28.8 °F 26.1 °F 73% 30.24 in 10.0 mi NW 5.8 mph - N/A   Overcast
6:53 AM 34.0 °F 28.0 °F 26.1 °F 73% 30.25 in 10.0 mi NW 6.9 mph - N/A   Overcast
7:53 AM 35.6 °F 29.2 °F 26.6 °F 70% 30.24 in 10.0 mi NW 8.1 mph - N/A   Overcast
8:53 AM 37.0 °F 29.3 °F 26.1 °F 65% 30.27 in 10.0 mi NNW 11.5 mph - N/A   Overcast
9:53 AM 37.0 °F 28.1 °F 26.1 °F 65% 30.27 in 10.0 mi NNW 15.0 mph - N/A   Overcast
10:30 AM 37.0 °F 28.9 °F 27.0 °F 67% 30.27 in 10.0 mi North 12.7 mph - N/A   Overcast
10:53 AM 37.0 °F 29.3 °F 26.1 °F 65% 30.28 in 10.0 mi North 11.5 mph - N/A   Overcast
11:50 AM 37.4 °F 30.3 °F 24.8 °F 60% 30.27 in 10.0 mi North 10.4 mph - N/A   Overcast
11:53 AM 37.9 °F 30.9 °F 26.1 °F 62% 30.28 in 10.0 mi North 10.4 mph - N/A   Overcast
12:53 PM 37.0 °F 29.8 °F 26.1 °F 65% 30.28 in 10.0 mi North 10.4 mph - N/A   Overcast
1:13 PM 37.0 °F 29.3 °F 26.1 °F 65% 30.26 in 10.0 mi North 11.5 mph - N/A   Overcast
1:53 PM 37.9 °F 30.0 °F 24.1 °F 57% 30.26 in 10.0 mi NNW 12.7 mph - N/A   Overcast
2:06 PM 37.4 °F 28.9 °F 24.8 °F 60% 30.25 in 10.0 mi NW 13.8 mph - N/A   Overcast
2:53 PM 37.4 °F 28.5 °F 23.0 °F 56% 30.24 in 10.0 mi North 15.0 mph - N/A   Mostly Cloudy
3:53 PM 37.0 °F 28.5 °F 24.1 °F 59% 30.27 in 10.0 mi North 13.8 mph - N/A   Mostly Cloudy
4:53 PM 37.0 °F 28.1 °F 21.9 °F 54% 30.27 in 10.0 mi North 15.0 mph - N/A   Mostly Cloudy
5:53 PM 35.1 °F 26.4 °F 23.0 °F 61% 30.28 in 10.0 mi North 12.7 mph - N/A   Mostly Cloudy
6:53 PM 34.0 °F 23.4 °F 21.0 °F 59% 30.30 in 10.0 mi North 17.3 mph - N/A   Overcast
7:53 PM 32.0 °F 21.6 °F 21.0 °F 64% 30.32 in 10.0 mi North 15.0 mph - N/A   Overcast
8:53 PM 32.0 °F 21.6 °F 19.0 °F 59% 30.33 in 10.0 mi North 15.0 mph 20.7 mph N/A   Overcast
9:53 PM 30.9 °F 21.7 °F 18.0 °F 59% 30.34 in 10.0 mi NNW 11.5 mph - N/A   Overcast
10:53 PM 30.9 °F 21.2 °F 19.9 °F 64% 30.35 in 10.0 mi NNW 12.7 mph - N/A   Overcast
11:53 PM 30.9 °F 22.2 °F 19.9 °F 64% 30.35 in 10.0 mi NNW 10.4 mph - N/A   Overcast